[[{"header":{"parameterUnit":"m.s-1","parameterCategory":1,"la1":30.2991,"la2":30.254,"lo1":-89.0895,"lo2":-89.0444,"dy":0.0017,"dx":0.0017,"nx":28,"ny":28,"refTime":"2024-12-26T09:00:00:Z","depth":0,"parameterNumber":2,"parameterNumberName":"U-component_of_WINDS"},"data":[0,0,0,0,0,0,0,0,0,0,0,0,0,0,0,0,0,0,0,0,0,0,0,0,0,0,0,0,0,0,0,0,0,0,0,0,0,0,0,0,0,0,0,0,0,0,0,0,0,0,0,0,0,0,0,0,0,0,1.7332,1.7333,0,1.7375,1.7375,1.7376,1.7366,1.7365,1.7364,1.7363,1.7403,1.7405,1.7406,0,0,0,0,0,0,0,0,0,0,0,0,0,1.724,1.7242,1.7332,1.7333,1.7333,1.7375,1.7375,1.7376,1.7366,1.7365,1.7364,1.7363,1.7402,1.7404,1.7407,0,0,0,0,0,0,0,0,0,0,0,0,0,1.7281,1.7242,1.7332,1.7334,1.7334,1.7375,1.7375,1.7376,1.7366,1.7365,1.7364,1.7363,1.7402,1.7404,1.7407,1.7447,0,0,1.7415,1.7416,0,0,0,0,0,0,0,0,1.7278,1.7284,1.7333,1.7334,1.7334,1.7364,1.7357,1.74,1.7366,1.7354,1.7363,1.7362,1.7391,1.7394,1.7405,1.7449,1.7451,1.7415,1.7417,1.7418,1.7419,0,0,0,0,0,0,0,1.7276,1.7282,1.7349,1.7334,1.7334,1.7331,1.7335,1.7365,1.7378,1.7355,1.7354,1.736,1.7391,1.7402,1.7405,1.7452,1.7415,1.7418,1.7419,1.742,1.7532,1.7533,0,0,0,0,0,0,1.7273,1.728,1.7348,1.735,1.7303,1.7334,1.7339,1.7355,1.7378,1.738,1.7361,1.7359,1.7398,1.7402,1.7407,1.7456,1.7418,1.7421,1.7422,1.753,1.7532,1.7534,0,0,0,0,0,0,1.7271,1.7279,1.7346,1.7315,1.7323,1.7337,1.7355,1.7357,1.7368,1.7382,1.7384,1.737,1.7397,1.7403,1.7438,1.7457,1.7422,1.7424,1.7529,1.7531,1.7533,1.7554,0,0,0,0,0,0,1.7268,1.7278,1.7294,1.7316,1.7325,1.7377,1.7357,1.7359,1.7373,1.7372,1.7392,1.7394,1.7397,1.7434,1.744,1.746,1.7426,1.7527,1.753,1.7532,1.7552,1.7557,1.7561,0,0,0,0,0,1.7265,1.7298,1.7295,1.7304,1.7346,1.7378,1.7384,1.7388,1.7375,1.7391,1.74,1.7393,1.7454,1.7437,1.7445,1.7466,1.7526,1.7529,1.7532,1.755,1.7556,1.7561,0,0,0,0,0,0,1.7277,1.7301,1.7298,1.7339,1.7357,1.7377,1.7397,1.7394,1.7414,1.7412,1.7415,1.7419,1.7455,1.7464,1.7445,1.7506,1.7488,1.7493,1.7499,1.7505,1.7509,1.7506,1.7429,0,0,0,0,0,1.7285,1.7311,1.7329,1.7363,1.7373,1.7383,1.7398,1.7399,1.7417,1.7425,1.7436,1.7453,1.7476,1.7491,1.7513,1.7553,1.7557,1.7571,1.7576,1.7579,1.7583,1.7605,1.7611,1.7543,1.7543,1.7543,0,0,1.73,1.7317,1.7332,1.7366,1.738,1.7406,1.739,1.7417,1.7436,1.7428,1.7462,1.7471,1.749,1.7528,1.7545,1.7537,1.7603,1.7583,1.7586,1.7588,1.7609,1.7615,1.7621,1.7546,1.7545,1.7545,0,0,1.7342,1.7357,1.7387,1.7402,1.7425,1.7432,1.7439,1.7459,1.7466,1.75,1.7495,1.7517,1.7556,1.757,1.7582,1.763,1.7624,1.7637,1.766,1.7682,1.7687,1.7692,1.7708,1.7714,1.7641,1.7641,1.7641,0,1.7358,1.7398,1.7403,1.7432,1.7446,1.7443,1.7473,1.7487,1.7514,1.7524,1.7514,1.7564,1.7577,1.7618,1.763,1.764,1.7647,1.7634,1.7686,1.7691,1.7695,1.7711,1.7717,1.7642,1.7642,1.7642,1.7642,0,1.7416,1.7444,1.7465,1.7494,1.7511,1.754,1.7549,1.7566,1.7567,1.7574,1.7609,1.7624,1.7649,1.7659,1.7659,1.77,1.7694,1.7685,1.7667,1.7703,1.7718,1.7724,1.7644,1.7644,1.7643,1.7643,0,0,1.7465,1.7498,1.7505,1.7518,1.7543,1.7564,1.7593,1.7619,1.7633,1.7652,1.7676,1.771,1.7702,1.7716,1.7718,1.7736,1.7773,1.7725,1.7725,1.7733,1.7819,1.7825,1.7832,1.777,1.7771,1.7772,1.7817,0,1.7509,1.7561,1.7567,1.7613,1.7638,1.7635,1.7661,1.7678,1.7686,1.7708,1.7716,1.774,1.7729,1.7737,1.7756,1.7765,1.779,1.7762,1.7791,1.7792,1.7785,1.784,1.7846,1.7888,1.7823,1.7824,1.7825,0,1.7566,1.7589,1.7638,1.766,1.767,1.7693,1.7717,1.7738,1.7758,1.7762,1.7779,1.7778,1.7807,1.7789,1.7828,1.7808,1.7821,1.7827,1.7829,1.7831,1.781,1.7843,1.7901,1.7907,1.7834,1.7833,1.7833,0,1.7596,1.7639,1.7674,1.7685,1.7712,1.7728,1.7739,1.7758,1.7773,1.7794,1.7804,1.7827,1.784,1.7858,1.7863,1.785,1.7902,1.7884,1.7906,1.7906,1.7916,1.7916,1.7977,1.7926,1.7926,1.7926,1.7925,0,1.7643,1.7673,1.7688,1.7709,1.7743,1.7749,1.7782,1.7792,1.7809,1.7832,1.783,1.7851,1.7858,1.788,1.7884,1.7916,1.7922,1.7925,1.7926,1.7925,1.7925,1.7932,1.7929,1.7927,1.7927,1.7927,1.7926,0,1.7682,1.7693,1.7731,1.7754,1.776,1.7784,1.7803,1.7823,1.7831,1.786,1.7867,1.788,1.7906,1.7914,1.7944,1.7947,1.7984,1.7982,1.7978,1.7978,1.7999,1.7996,1.8067,1.8076,1.8019,1.802,1.802,0,1.7711,1.7734,1.776,1.7776,1.7789,1.7814,1.783,1.7838,1.7854,1.7879,1.7896,1.7922,1.7943,1.7984,1.7995,1.8019,1.8017,1.8041,1.8021,1.8019,1.8017,1.8015,1.8017,1.8044,1.8044,1.8045,1.8045,0,1.7761,1.7766,1.779,1.7817,1.7836,1.7857,1.7877,1.7889,1.79,1.7918,1.7946,1.7962,1.7995,1.802,1.8044,1.8054,1.8051,1.8052,1.8058,1.8057,1.8053,1.8055,1.7987,1.805,1.8049,1.8049,1.8049,1.8048,1.7795,1.7816,1.7838,1.7865,1.7881,1.79,1.792,1.7932,1.7955,1.7983,1.7986,1.8015,1.8034,1.8067,1.8078,1.8101,1.8094,1.8103,1.8105,1.8107,1.8108,1.805,1.8105,1.8105,1.8105,1.8105,1.8105,0,1.7845,1.7859,1.7884,1.7913,1.7934,1.7931,1.7953,1.7971,1.7997,1.8016,1.8037,1.8068,1.8093,1.8107,1.8132,1.8147,1.8146,1.8153,1.8152,1.8154,1.8113,1.8105,1.8154,1.8154,1.8154,1.8153,1.8153,1.8153,1.7873,1.7908,1.7915,1.7958,1.7972,1.8002,1.8014,1.8032,1.8047,1.8082,1.8104,1.8113,1.813,1.8156,1.8178,1.8182,1.819,1.8198,1.82,1.8162,1.8157,1.8152,1.8145,1.82,1.82,1.8239,1.824,1.824]},{"header":{"parameterUnit":"m.s-1","parameterCategory":1,"la1":30.2991,"la2":30.254,"lo1":-89.0895,"lo2":-89.0444,"dy":0.0017,"dx":0.0017,"nx":28,"ny":28,"refTime":"2024-12-26T09:00:00:Z","depth":0,"parameterNumber":3,"parameterNumberName":"V-component_of_WINDS"},"data":[0,0,0,0,0,0,0,0,0,0,0,0,0,0,0,0,0,0,0,0,0,0,0,0,0,0,0,0,0,0,0,0,0,0,0,0,0,0,0,0,0,0,0,0,0,0,0,0,0,0,0,0,0,0,0,0,0,0,2.1755,2.1753,0,2.1539,2.1537,2.1534,2.1437,2.1437,2.1437,2.1437,2.1217,2.1211,2.1205,0,0,0,0,0,0,0,0,0,0,0,0,0,2.2084,2.2078,2.1756,2.1753,2.175,2.154,2.1537,2.1534,2.1437,2.1437,2.1437,2.1437,2.1219,2.1211,2.1204,0,0,0,0,0,0,0,0,0,0,0,0,0,2.1912,2.2077,2.1756,2.1676,2.1667,2.154,2.1536,2.1533,2.1437,2.1437,2.1437,2.1438,2.1221,2.1212,2.1203,2.1139,0,0,2.1175,2.1171,0,0,0,0,0,0,0,0,2.1922,2.19,2.1691,2.1682,2.1671,2.1515,2.1571,2.1401,2.1436,2.1524,2.1437,2.1438,2.1316,2.1299,2.1257,2.1129,2.112,2.1174,2.1169,2.1165,2.1162,0,0,0,0,0,0,0,2.1934,2.1909,2.167,2.1688,2.1676,2.1651,2.1627,2.1539,2.1421,2.1516,2.1509,2.1485,2.131,2.1267,2.1252,2.1116,2.1175,2.1166,2.1161,2.1157,2.0925,2.0925,0,0,0,0,0,0,2.1959,2.1919,2.1677,2.1663,2.18,2.1645,2.1618,2.1565,2.1421,2.14,2.1485,2.1481,2.1282,2.1262,2.1243,2.1159,2.1165,2.1156,2.1151,2.0926,2.0925,2.0924,0,0,0,0,0,0,2.1966,2.1938,2.1685,2.1789,2.1755,2.1639,2.158,2.156,2.1516,2.1397,2.1376,2.1461,2.1281,2.1256,2.1166,2.115,2.1152,2.1144,2.0927,2.0926,2.0925,2.0991,0,0,0,0,0,0,2.1976,2.1941,2.1916,2.1789,2.175,2.1611,2.1579,2.1556,2.1501,2.1494,2.137,2.1349,2.128,2.118,2.1157,2.1138,2.1137,2.0927,2.0926,2.0925,2.0989,2.0992,2.0994,0,0,0,0,0,2.1988,2.1943,2.1915,2.1886,2.1716,2.1611,2.1588,2.1509,2.15,2.1473,2.1397,2.1353,2.1156,2.1172,2.1145,2.1122,2.0928,2.0927,2.0925,2.0988,2.0991,2.0994,0,0,0,0,0,0,2.207,2.1925,2.1892,2.1805,2.1721,2.1594,2.1558,2.1515,2.1432,2.1429,2.1334,2.1307,2.1225,2.1164,2.1185,2.1053,2.1038,2.1031,2.1096,2.1098,2.11,2.1116,2.1129,0,0,0,0,0,2.2078,2.2006,2.1882,2.1817,2.1777,2.1675,2.1626,2.1573,2.1482,2.1446,2.1362,2.1276,2.1195,2.1143,2.1061,2.0981,2.0952,2.0952,2.0955,2.0957,2.0952,2.0905,2.0904,2.0919,2.0919,2.0919,0,0,2.2094,2.2006,2.1965,2.1831,2.176,2.1686,2.1646,2.157,2.1514,2.1434,2.1343,2.128,2.1177,2.1092,2.105,2.1039,2.0942,2.0955,2.0958,2.0951,2.0903,2.0902,2.0901,2.0918,2.0918,2.0919,0,0,2.2084,2.2011,2.1948,2.1878,2.177,2.1703,2.1689,2.1568,2.1523,2.143,2.1369,2.1302,2.1164,2.1093,2.1039,2.1005,2.0962,2.0981,2.0994,2.0949,2.0948,2.0946,2.0934,2.093,2.0977,2.0977,2.0977,0,2.2117,2.2004,2.1921,2.1849,2.1792,2.1716,2.1652,2.1588,2.146,2.1422,2.1412,2.1237,2.1162,2.1059,2.1051,2.101,2.099,2.0994,2.0955,2.0952,2.0949,2.0936,2.0932,2.098,2.0979,2.0979,2.0979,0,2.2049,2.1972,2.1935,2.1813,2.1752,2.1684,2.1591,2.1539,2.1491,2.1425,2.1333,2.1241,2.114,2.1111,2.1064,2.1002,2.0998,2.0973,2.0955,2.0952,2.0939,2.0933,2.0984,2.0983,2.0982,2.0981,0,0,2.2084,2.1919,2.1906,2.185,2.1727,2.1665,2.1594,2.1495,2.1452,2.1367,2.1305,2.119,2.1166,2.1105,2.1049,2.101,2.0988,2.0988,2.0985,2.0991,2.0914,2.0934,2.0929,2.096,2.0958,2.0957,2.0922,0,2.2058,2.1927,2.1851,2.1752,2.1679,2.1607,2.1545,2.1463,2.14,2.133,2.126,2.118,2.1154,2.1117,2.1075,2.1,2.0971,2.1001,2.0901,2.0899,2.0928,2.0922,2.0942,2.0913,2.0917,2.0916,2.0915,0,2.2009,2.1925,2.1819,2.1704,2.1671,2.1616,2.1519,2.1453,2.1359,2.1315,2.1248,2.1192,2.1115,2.1105,2.0997,2.102,2.0974,2.0931,2.0928,2.0915,2.0906,2.0908,2.0902,2.0898,2.0906,2.0906,2.0907,0,2.2045,2.1905,2.1823,2.1778,2.1642,2.1606,2.1547,2.1453,2.1399,2.1314,2.1278,2.1186,2.1136,2.1066,2.0988,2.0988,2.0888,2.0871,2.085,2.0852,2.0832,2.0834,2.0818,2.0804,2.0804,2.0804,2.0804,0,2.2022,2.196,2.1838,2.1788,2.1716,2.1629,2.156,2.1496,2.1414,2.135,2.1282,2.1224,2.1123,2.1053,2.0991,2.0911,2.0889,2.0853,2.0837,2.0858,2.0863,2.0826,2.0826,2.0803,2.0803,2.0804,2.0804,0,2.205,2.1965,2.1872,2.1751,2.1719,2.1672,2.1568,2.1517,2.1451,2.1371,2.1347,2.1244,2.1157,2.1072,2.0956,2.0914,2.0835,2.0815,2.0867,2.0858,2.0842,2.0844,2.0801,2.0791,2.0786,2.0786,2.0786,0,2.204,2.1991,2.1866,2.1818,2.1761,2.1686,2.163,2.1543,2.1488,2.1377,2.1339,2.1247,2.1169,2.1035,2.0949,2.086,2.0836,2.0827,2.0822,2.0846,2.0836,2.0839,2.0834,2.083,2.083,2.0831,2.0831,0,2.2033,2.1994,2.1916,2.1824,2.176,2.1683,2.1603,2.1568,2.1466,2.1408,2.1318,2.1258,2.1139,2.1049,2.0951,2.0891,2.0844,2.0834,2.0824,2.0844,2.0877,2.0859,2.0873,2.0835,2.0834,2.0834,2.0834,2.0834,2.2041,2.1994,2.1899,2.1814,2.1746,2.1673,2.1619,2.1547,2.1471,2.1367,2.1321,2.1231,2.1138,2.1,2.0942,2.087,2.0858,2.0845,2.0841,2.0839,2.0843,2.0889,2.0852,2.0852,2.0852,2.0852,2.0851,0,2.203,2.1965,2.1889,2.178,2.1714,2.1676,2.1587,2.1534,2.1455,2.1373,2.1298,2.1195,2.1108,2.1016,2.0924,2.0885,2.0861,2.0863,2.0865,2.0852,2.0859,2.0877,2.0884,2.0884,2.0884,2.0884,2.0884,2.0884,2.2016,2.1934,2.1884,2.1768,2.1703,2.1614,2.1567,2.15,2.1433,2.1322,2.1249,2.119,2.1103,2.1004,2.0923,2.0898,2.0867,2.0876,2.0845,2.0853,2.0851,2.0849,2.0865,2.087,2.087,2.0843,2.0843,2.0843]}]]